Temperature
11 10 10 10 10 9 9 9 8 8 8 8 8 8 7 7 7 7 7 6 6 6 6 6 6 6 6 6 6 6 6 5 6 5 5 5 5 5
10 10 10 9 9 9 9 8 8 7 7 7 7 7 7 6 6 6 6 6 6 6 6 5 5 5 5 5 5 5 5 5 5 5 5 5 5 5
10 9 9 9 9 8 8 8 7 7 7 6 6 6 6 6 5 5 5 5 5 5 5 5 5 5 4 4 4 4 4 4 4 4 4 4 4 4
9 9 8 8 8 8 7 7 7 7 6 6 6 5 5 5 5 5 5 5 5 4 4 4 4 4 4 4 4 4 4 3 3 3 3 4 4 3
8 8 7 7 7 7 7 6 6 6 6 5 5 5 5 5 4 4 4 4 4 4 4 3 3 3 3 3 3 3 3 3 3 3 3 3 3 3
7 7 7 6 6 6 6 6 5 5 5 5 4 4 4 4 4 4 4 4 3 3 3 3 3 3 3 3 3 2 2 2 2 2 2 2 2 2
6 6 6 5 5 5 5 5 4 4 4 4 4 4 4 3 3 3 3 3 3 3 2 2 2 2 2 2 2 2 2 2 2 2 2 2 2 2
5 5 5 5 4 4 4 4 4 4 3 3 3 3 3 3 3 2 2 2 2 2 2 2 2 2 1 1 1 1 1 1 1 1 1 1 1 1
5 5 4 4 4 3 3 3 3 3 3 3 3 3 2 2 2 2 2 2 1 1 1 1 1 1 1 1 1 1 1 0 0 0 0 0 0 0
4 4 3 3 3 3 3 3 2 2 2 2 2 2 2 1 1 1 1 1 1 1 1 1 1 1 0 0 0 0 -0 -0 -0 -1 -1 -1 -1 -0
3 3 3 3 2 2 2 2 2 2 1 1 1 1 1 1 0 0 0 0 0 0 -0 -0 0 0 0 0 -0 -0 -1 -1 -1 -1 -1 -1 -1 -1
3 2 2 2 2 1 1 1 1 1 1 1 0 0 0 -0 -0 -0 -0 -0 -1 -1 -1 -1 -1 -1 -1 -1 -1 -1 -1 -2 -2 -2 -2 -2 -2 -2
2 2 2 1 1 1 1 1 0 0 0 -0 -0 -0 -1 -1 -1 -1 -1 -1 -1 -1 -2 -2 -2 -1 -2 -1 -1 -1 -2 -2 -2 -2 -2 -2 -2 -2
2 1 1 1 0 0 -0 -0 -0 -1 -1 -1 -1 -1 -1 -1 -1 -1 -1 -1 -2 -2 -2 -2 -2 -2 -2 -2 -2 -2 -2 -2 -2 -2 -2 -3 -3 -3
1 1 0 -0 -0 -1 -1 -1 -1 -1 -1 -1 -1 -2 -2 -2 -2 -2 -2 -2 -2 -2 -2 -3 -3 -3 -3 -3 -3 -2 -2 -2 -3 -3 -3 -3 -3 -3
0 -0 -0 -1 -1 -1 -1 -1 -2 -2 -2 -2 -2 -2 -2 -2 -2 -2 -2 -2 -2 -2 -3 -3 -3 -3 -3 -3 -3 -3 -3 -3 -3 -3 -3 -3 -3 -3
-1 -1 -1 -1 -1 -1 -1 -2 -2 -2 -2 -2 -2 -2 -2 -2 -3 -3 -3 -3 -3 -3 -3 -3 -4 -4 -4 -3 -3 -3 -3 -3 -4 -4 -4 -3 -3 -4
-1 -1 -1 -1 -1 -2 -2 -2 -2 -2 -2 -3 -3 -3 -3 -3 -3 -3 -3 -3 -3 -3 -4 -4 -4 -4 -4 -3 -4 -3 -4 -4 -4 -4 -4 -4 -3 -4
-1 -1 -1 -2 -2 -2 -2 -2 -2 -2 -3 -3 -3 -3 -3 -3 -3 -3 -3 -3 -3 -4 -4 -4 -4 -5 -5 -4 -4 -4 -4 -4 -5 -5 -5 -5 -4 -4
-2 -1 -2 -2 -2 -2 -2 -2 -2 -3 -3 -3 -3 -3 -3 -3 -3 -3 -4 -4 -4 -4 -4 -4 -5 -5 -6 -6 -5 -4 -5 -5 -5 -5 -5 -5 -5 -4
-2 -2 -2 -2 -2 -2 -2 -2 -3 -3 -3 -3 -3 -3 -3 -4 -4 -4 -4 -4 -4 -4 -4 -4 -5 -6 -6 -6 -6 -4 -5 -6 -6 -6 -6 -6 -6 -5
-2 -2 -2 -2 -2 -2 -2 -3 -3 -3 -3 -3 -3 -3 -4 -4 -4 -4 -4 -4 -5 -5 -5 -5 -6 -6 -6 -6 -6 -6 -5 -5 -6 -6 -7 -7 -7 -7
-2 -3 -3 -2 -2 -3 -3 -3 -3 -3 -3 -3 -3 -4 -4 -4 -4 -5 -5 -5 -5 -5 -6 -6 -6 -6 -7 -7 -7 -6 -6 -6 -6 -6 -6 -6 -7 -7
Wind_Speed
3 3 3 2 2 2 2 3 3 4 4 3 1 0 1 1 1 1 2 2 3 3 3 4 4 5 5 6 6 6 7 6 5 2 2 2 1 1
2 3 2 1 1 1 1 2 3 4 4 1 1 0 1 0 1 2 2 2 3 3 3 3 3 4 4 5 5 5 6 5 6 4 2 2 1 0
2 2 2 1 1 1 1 1 2 2 4 1 0 1 0 0 1 2 2 3 3 3 2 2 3 4 4 4 4 5 5 5 5 4 3 2 2 1
3 3 2 2 2 1 1 1 1 2 2 3 1 0 0 0 0 1 2 2 3 3 3 3 4 3 3 3 3 3 4 4 4 4 3 3 2 1
4 4 3 3 2 1 1 1 1 1 1 2 1 0 0 0 0 1 1 2 3 3 3 4 4 4 3 2 2 3 3 2 3 3 4 4 3 2
3 3 3 3 3 2 1 1 1 1 1 1 1 1 0 0 0 0 1 1 1 3 3 3 4 4 3 3 2 2 2 2 2 2 2 3 3 3
2 2 2 3 3 3 2 2 2 1 1 1 1 1 1 1 1 1 1 1 1 1 1 2 3 3 3 3 3 2 1 1 1 1 2 1 2 2
3 2 2 2 2 2 2 2 3 2 3 2 2 2 2 2 1 1 1 0 2 1 1 2 1 1 2 3 3 2 1 1 0 1 1 1 2 2
4 3 2 2 2 2 2 2 1 0 2 3 3 3 3 3 3 2 2 2 2 1 0 1 1 1 2 3 4 2 1 1 1 1 1 2 2 3
3 3 3 2 2 3 3 2 1 2 1 1 2 3 2 2 3 3 2 1 0 1 0 1 1 1 2 5 4 1 1 1 1 1 2 3 4 4
3 3 4 3 5 5 4 2 1 1 2 2 2 1 1 2 3 3 2 1 0 1 0 1 1 2 2 2 3 3 1 1 2 3 4 4 5 5
2 3 5 5 6 6 4 4 3 2 1 1 2 3 3 2 2 2 3 2 1 2 1 1 0 1 2 2 2 3 2 2 3 3 4 5 5 3
3 3 3 7 7 7 6 5 5 3 2 2 1 1 1 1 1 1 2 3 3 3 1 2 1 0 1 2 2 2 2 2 3 4 5 5 5 4
4 4 4 7 7 7 5 6 6 4 3 2 1 1 1 1 1 1 1 2 2 3 3 3 2 2 1 1 3 2 2 4 4 3 4 5 5 6
4 7 7 7 6 4 5 6 4 3 3 3 3 3 2 2 1 1 1 0 1 2 3 3 3 3 3 3 3 2 3 3 3 2 3 3 4 4
4 5 6 7 5 4 4 3 3 4 4 4 3 2 2 2 2 2 1 1 0 1 1 3 5 4 3 4 5 5 4 3 2 2 3 4 6 8
4 2 2 2 3 3 3 3 3 3 4 3 3 3 3 3 2 2 2 2 2 2 2 1 4 6 6 5 5 7 6 5 5 4 4 5 5 7
5 4 4 5 5 5 5 4 4 5 5 4 4 4 4 4 4 3 3 3 4 4 3 2 1 1 2 5 10 7 5 5 4 4 4 5 6 6
6 5 5 6 6 5 5 5 5 5 5 5 5 5 5 4 4 4 4 4 5 5 4 3 3 3 2 4 4 9 6 3 3 3 4 5 6 6
5 5 6 5 5 6 6 5 5 5 5 5 5 5 5 5 5 5 5 6 5 5 4 4 5 6 6 4 4 4 8 6 4 5 5 5 6 10
5 6 6 6 6 6 6 6 6 6 5 5 6 6 6 6 6 6 6 9 7 5 6 6 7 9 4 2 4 5 5 11 10 6 4 4 6 5
5 5 5 5 5 6 6 5 6 6 6 6 6 6 6 6 7 7 7 6 7 7 7 5 3 4 5 6 8 7 6 6 10 15 15 13 6 4
4 4 4 5 5 4 5 5 6 6 6 6 6 6 7 7 7 7 7 7 7 7 6 5 4 4 6 7 8 8 9 8 6 6 9 16 20 23
Wind_Direction
201 198 205 212 206 208 216 218 233 264 261 223 209 145 141 100 29 33 16 357 6 7 8 9 7 8 6 7 16 21 21 25 24 29 89 89 86 121
164 165 180 190 168 176 214 229 229 241 256 213 205 143 92 121 81 56 16 16 15 7 8 10 19 25 21 25 32 31 25 28 33 42 65 81 64 50
134 150 162 150 153 177 206 222 238 239 254 249 124 75 101 82 33 33 23 17 11 9 10 30 31 23 17 25 31 31 28 29 33 38 44 57 60 47
151 149 158 144 156 171 182 216 232 231 236 250 219 186 211 201 357 359 1 1 5 11 20 22 18 9 9 22 30 32 31 31 41 40 36 38 37 47
158 161 167 160 178 187 175 206 233 241 227 225 235 152 323 31 12 348 357 357 354 6 15 9 4 1 5 14 25 31 25 40 46 42 41 38 33 26
147 156 165 175 184 183 189 205 207 217 218 208 210 208 230 310 134 264 304 335 326 352 355 354 359 6 19 27 24 19 33 38 39 38 38 38 28 16
136 145 160 167 180 182 186 193 184 197 198 199 212 206 224 217 226 215 244 315 296 338 331 342 347 353 1 7 359 354 18 47 48 41 25 19 9 355
156 152 152 151 158 157 161 165 171 181 194 194 210 224 233 221 195 196 176 73 281 310 340 302 355 313 321 325 318 303 260 160 91 17 350 332 325 316
167 166 160 153 127 109 101 76 62 112 200 186 203 220 217 204 178 197 204 205 231 277 27 279 331 287 306 316 316 273 207 206 239 308 319 311 301 292
173 175 171 167 168 154 133 100 58 19 21 145 189 211 217 203 189 189 186 166 306 325 137 250 308 291 317 322 329 335 193 229 264 295 306 301 299 293
180 180 180 187 202 181 156 157 163 337 32 94 116 143 174 171 151 124 130 118 269 259 128 205 305 317 315 315 332 345 320 296 294 299 301 298 296 294
188 197 206 207 212 197 174 178 205 226 189 66 48 44 45 58 110 136 159 158 190 256 219 153 340 1 326 319 328 327 326 308 307 305 303 301 296 292
195 203 214 219 218 211 198 193 217 201 175 160 138 64 39 44 61 100 150 162 179 226 197 138 153 134 228 301 314 318 306 301 305 298 304 300 290 276
203 205 211 220 220 220 211 210 216 191 154 163 187 214 224 227 210 163 162 181 202 223 213 171 176 179 181 274 282 308 300 278 272 277 283 292 288 283
202 208 213 219 217 222 221 217 207 170 170 196 218 225 213 199 171 140 96 78 327 275 233 210 185 184 192 223 257 278 300 288 259 255 262 261 264 266
202 210 216 217 204 206 220 221 187 187 193 208 215 209 179 172 186 183 188 184 289 304 272 232 215 195 214 231 241 259 248 261 272 255 272 271 262 252
169 160 169 179 194 201 205 209 202 202 212 202 202 204 204 206 210 185 184 180 202 239 269 246 236 233 230 226 245 250 252 254 254 258 265 276 266 248
188 189 202 206 213 214 215 215 211 215 214 209 209 211 215 216 217 199 194 203 225 236 236 228 211 291 286 254 228 241 246 251 251 244 236 265 279 258
209 204 211 213 215 215 216 216 219 216 206 207 213 216 216 216 214 215 214 220 233 239 234 212 195 194 246 281 265 218 217 236 248 253 242 243 268 275
209 212 217 215 214 217 219 220 223 216 209 212 215 217 212 212 218 222 220 223 232 236 236 219 211 208 217 237 261 260 228 229 240 256 262 262 268 276
217 219 218 217 217 217 218 217 217 216 213 210 216 217 214 212 222 225 225 234 234 232 240 240 231 226 216 215 259 262 242 236 237 239 245 267 280 273
223 225 224 221 220 220 218 216 218 219 218 219 221 220 216 216 224 226 225 227 229 232 240 243 215 200 198 224 249 262 270 263 256 257 253 246 241 245
231 230 228 223 223 225 223 220 222 226 222 222 223 222 217 219 223 225 227 228 232 235 237 238 221 214 224 232 250 261 266 270 271 268 263 256 253 256
Height
1518 1518 1519 1519 1520 1520 1520 1520 1520 1517 1516 1516 1516 1515 1515 1515 1515 1514 1514 1513 1512 1512 1511 1511 1511 1510 1510 1509 1509 1509 1508 1508 1508 1508 1508 1509 1510 1511
1512 1513 1513 1513 1513 1514 1514 1514 1514 1513 1511 1510 1511 1511 1510 1510 1509 1509 1509 1508 1508 1507 1507 1507 1506 1506 1505 1505 1505 1505 1504 1504 1504 1504 1505 1505 1506 1507
1506 1507 1507 1507 1508 1508 1508 1509 1508 1508 1507 1506 1506 1505 1505 1505 1505 1505 1504 1504 1503 1503 1503 1502 1502 1502 1501 1501 1501 1501 1501 1501 1501 1501 1502 1502 1503 1504
1501 1502 1502 1502 1503 1503 1503 1503 1503 1503 1502 1501 1501 1501 1500 1500 1500 1500 1500 1500 1499 1499 1498 1498 1498 1497 1497 1497 1497 1497 1497 1497 1497 1498 1498 1499 1499 1500
1496 1497 1497 1497 1498 1498 1498 1498 1498 1498 1498 1497 1497 1496 1496 1496 1496 1495 1495 1495 1495 1495 1494 1494 1494 1493 1493 1493 1493 1493 1493 1494 1494 1494 1495 1495 1496 1497
1491 1492 1492 1493 1493 1493 1493 1493 1493 1493 1493 1493 1492 1492 1492 1491 1491 1491 1491 1491 1491 1491 1490 1490 1490 1489 1489 1489 1489 1489 1490 1490 1490 1491 1491 1491 1492 1492
1487 1487 1488 1488 1488 1488 1489 1489 1489 1489 1489 1488 1488 1488 1488 1488 1488 1487 1487 1487 1487 1487 1486 1486 1486 1486 1486 1486 1486 1486 1486 1486 1487 1487 1487 1488 1488 1488
1482 1483 1483 1484 1484 1484 1484 1485 1485 1485 1485 1484 1484 1484 1484 1484 1484 1484 1483 1483 1483 1484 1483 1483 1482 1482 1482 1482 1482 1482 1482 1483 1483 1483 1483 1484 1484 1484
1478 1479 1479 1480 1480 1480 1480 1481 1481 1481 1481 1481 1481 1480 1480 1480 1480 1480 1480 1479 1479 1479 1479 1479 1479 1479 1479 1479 1479 1479 1479 1479 1479 1479 1480 1480 1480 1481
1474 1475 1475 1475 1476 1476 1476 1477 1477 1477 1477 1477 1477 1476 1476 1476 1476 1477 1477 1476 1476 1476 1476 1475 1475 1475 1475 1475 1475 1475 1475 1476 1476 1476 1476 1476 1476 1477
1470 1471 1471 1471 1472 1472 1473 1473 1473 1473 1473 1473 1473 1473 1473 1473 1473 1474 1474 1473 1473 1473 1472 1472 1472 1472 1472 1472 1471 1472 1472 1472 1472 1472 1472 1472 1472 1472
1466 1467 1467 1468 1468 1468 1469 1469 1470 1470 1470 1469 1470 1470 1470 1470 1470 1470 1470 1470 1470 1470 1469 1469 1468 1469 1468 1468 1468 1468 1468 1468 1468 1468 1468 1468 1468 1468
1462 1463 1463 1464 1464 1464 1465 1465 1466 1466 1466 1466 1466 1466 1467 1467 1467 1467 1467 1467 1467 1466 1466 1466 1465 1465 1465 1465 1465 1465 1465 1465 1464 1464 1464 1464 1464 1463
1458 1459 1459 1460 1460 1461 1461 1461 1462 1462 1463 1463 1463 1463 1464 1464 1464 1464 1463 1463 1463 1463 1463 1463 1462 1462 1462 1461 1461 1461 1461 1461 1460 1460 1459 1459 1459 1459
1454 1455 1455 1456 1456 1457 1457 1458 1458 1458 1459 1459 1460 1460 1460 1460 1460 1460 1460 1460 1459 1459 1459 1459 1459 1459 1458 1457 1456 1456 1456 1456 1455 1455 1454 1454 1454 1453
1449 1450 1451 1452 1452 1453 1453 1454 1454 1455 1455 1456 1456 1456 1457 1457 1456 1456 1456 1456 1456 1456 1456 1455 1455 1454 1454 1453 1452 1451 1451 1451 1450 1450 1449 1449 1448 1448
1445 1446 1447 1448 1448 1449 1449 1450 1450 1451 1451 1452 1452 1452 1452 1453 1453 1452 1452 1452 1452 1451 1451 1451 1450 1450 1449 1448 1447 1447 1446 1446 1445 1444 1443 1442 1443 1442
1441 1441 1442 1443 1444 1444 1445 1445 1446 1447 1447 1447 1448 1448 1448 1448 1448 1448 1448 1448 1447 1447 1447 1446 1446 1445 1444 1443 1443 1441 1441 1441 1440 1439 1438 1436 1436 1437
1436 1437 1438 1439 1439 1440 1441 1441 1442 1442 1442 1443 1443 1443 1443 1443 1443 1443 1443 1443 1442 1442 1442 1442 1441 1440 1439 1437 1437 1437 1436 1435 1434 1433 1432 1431 1429 1429
1431 1432 1433 1434 1435 1435 1436 1436 1437 1437 1437 1438 1438 1438 1438 1438 1438 1438 1438 1438 1437 1437 1437 1436 1436 1435 1434 1433 1431 1431 1431 1430 1429 1427 1426 1424 1423 1423
1427 1428 1429 1429 1430 1431 1431 1432 1432 1432 1432 1432 1432 1433 1433 1433 1433 1433 1433 1432 1432 1431 1431 1431 1431 1430 1428 1427 1425 1424 1425 1425 1423 1421 1420 1418 1416 1415
1422 1423 1423 1424 1425 1425 1426 1426 1426 1427 1427 1427 1427 1427 1427 1427 1427 1427 1427 1426 1426 1425 1425 1425 1425 1423 1422 1421 1419 1418 1418 1418 1417 1416 1414 1413 1411 1408
1417 1417 1418 1419 1419 1420 1420 1420 1421 1421 1421 1421 1421 1421 1421 1421 1421 1420 1420 1420 1419 1419 1418 1418 1418 1417 1415 1414 1413 1412 1411 1410 1409 1408 1408 1407 1406 1403